User: anonymous   Login
Location: Kerb�bon
(47.7970°N, 3.3487°W)
Time: 03:08:24
(UTC+00:00)
Language:

Cosmos 1633 Rocket - Orbit

View from above orbital plane
View from above orbital plane
View from above satellite
View from above satellite

Ground track
Ground track

The orbit data is extracted from the following two-line orbital elements,

1 15593U 85020B   21210.70277002  .00000103  00000-0  93581-5 0  9994
2 15593  82.5390 295.5535 0013099 111.0439 249.2179 14.84438978967403
Epoch (UTC): 29 July 2021 16:51:59
Eccentricity: 0.0013099
inclination: 82.5390°
perigee height: 606 km
apogee height: 624 km
right ascension of ascending node: 295.5535°
argument of perigee: 111.0439°
revolutions per day: 14.84438978
mean anomaly at epoch: 249.2179°
orbit number at epoch: 96740

The dashed part of the orbit path shows where the satellite is in the earth's shadow,  

DLR